Flag for Canada Weather past 2 weeks in Corner Brook, Newfoundland and Labrador, Canada

Now
36 °F

Partly sunny.


Feels Like: 32 °F
Forecast: 14 / 33 °F
Wind: 5 mph from Northwest

Location: Deer Lake

Current Time: Apr 19, 2015 at 3:29:53 PM

Latest Report: Apr 19, 2015 at 2:30 PM


Visibility: 15 mi

Pressure: 30.09 "Hg

Humidity: 41%

Dew point: 14 °F

Location of Corner BrookLocation

Historic Weather in Corner Brook — Graph

°F

Corner Brook temperature yesterday

Maximum temperature yesterday: 36 °F (at 12:30 AM)
Minimum temperature yesterday: 23 °F (at 11:30 PM)
Average temperature yesterday: 30 °F

Past Weeks' High & Low Weather Summary

 TemperatureHumidityPressure
High52 °F (Apr 14, 10:30 AM)100% (Apr 5, 3:30 AM)30.53 "Hg (Apr 5, 3:30 AM)
Low-4 °F (Apr 9, 3:30 AM)28% (Apr 13, 1:30 PM)28.82 "Hg (Apr 5, 4:30 AM)
Average27 °F72%29.96 "Hg
* Reported Apr 4 2:30 PM — Apr 19 2:30 PM, Corner Brook, Weather by CustomWeather, © 2015

Note: Actual official high and low records may vary slightly from our data, if they occured in-between our weather recording intervals... More about our weather records

Advertising

Corner Brook weather history for previous 24 hours

 ConditionsComfort  
Time TempWeatherWind HumidityBarometerVisibility
2:30 PM
Sun, Apr 19
36 °FPartly sunny.5 mph41%30.09 "Hg15 mi
1:30 PM36 °FPartly sunny.6 mph41%30.10 "Hg15 mi
12:30 PM36 °FPartly sunny.5 mph44%30.12 "Hg15 mi
11:30 AM32 °FScattered clouds.5 mph51%30.14 "Hg15 mi
10:30 AM28 °FPassing clouds.3 mph64%30.15 "Hg15 mi
9:30 AM23 °FPassing clouds.2 mph74%30.15 "Hg15 mi
8:30 AM18 °FPassing clouds.2 mph86%30.14 "Hg15 mi
7:30 AM14 °FSunny.No wind85%30.13 "Hg15 mi
6:30 AM10 °FClear.No wind92%30.12 "Hg15 mi
5:30 AM12 °FLight snow. Passing clouds.3 mph92%30.10 "Hg15 mi
4:30 AM14 °FLight snow. Passing clouds.No wind92%30.09 "Hg15 mi
3:30 AM18 °FLight snow. Passing clouds.3 mph93%30.07 "Hg15 mi
2:30 AM21 °FLight snow. Partly cloudy.2 mph80%30.06 "Hg15 mi
1:30 AM21 °FLight snow. Partly cloudy.3 mph93%30.06 "Hg15 mi
12:30 AM25 °FLight snow. Passing clouds.6 mph86%30.04 "Hg15 mi
11:30 PM
Sat, Apr 18
23 °FLight snow. Passing clouds.6 mph93%30.03 "Hg15 mi
10:30 PM25 °FLight snow. Passing clouds.3 mph86%30.02 "Hg12 mi
9:30 PM27 °FLight snow. Overcast.12 mph80%30.00 "Hg12 mi
8:30 PM28 °FOvercast.9 mph74%29.97 "Hg15 mi
7:30 PM28 °FOvercast.12 mph74%29.94 "Hg15 mi
6:30 PM30 °FMore clouds than sun.12 mph64%29.91 "Hg15 mi
5:30 PM30 °FMore clouds than sun.16 mph69%29.88 "Hg15 mi
4:30 PM32 °FMore clouds than sun.15 mph60%29.86 "Hg12 mi
3:30 PM30 °FMostly cloudy.16 mph69%29.83 "Hg15 mi
Weather by CustomWeather, © 2015

See weather overviewHow to use our weather pages